TimeCDT,TemperatureF,Dew PointF,Humidity,Sea Level PressureIn,VisibilityMPH,Wind Direction,Wind SpeedMPH,Gust SpeedMPH,PrecipitationIn,Events,Conditions,WindDirDegrees,DateUTC
12:15 AM,39.2,27.9,64,29.98,10.0,West,16.1,23.0,N/A,,Overcast,270,2012-10-05 05:15:00
12:35 AM,38.5,26.6,62,29.98,10.0,West,15.0,24.2,N/A,,Mostly Cloudy,270,2012-10-05 05:35:00
12:55 AM,37.8,26.6,64,29.98,10.0,West,18.4,24.2,N/A,,Scattered Clouds,270,2012-10-05 05:55:00
1:15 AM,37.4,26.6,65,29.98,10.0,West,13.8,23.0,N/A,,Scattered Clouds,270,2012-10-05 06:15:00
1:35 AM,37.0,26.6,66,29.98,10.0,West,13.8,23.0,N/A,,Scattered Clouds,270,2012-10-05 06:35:00
1:55 AM,36.3,26.2,67,29.98,10.0,West,18.4,25.3,N/A,,Scattered Clouds,270,2012-10-05 06:55:00
2:15 AM,35.8,25.9,67,29.98,10.0,West,13.8,21.9,N/A,,Mostly Cloudy,270,2012-10-05 07:15:00
2:35 AM,35.4,26.1,69,29.97,10.0,West,13.8,19.6,N/A,,Overcast,270,2012-10-05 07:35:00
2:55 AM,36.1,26.1,67,29.98,10.0,West,17.3,20.7,N/A,,Overcast,260,2012-10-05 07:55:00
3:15 AM,36.5,26.2,66,29.98,10.0,West,16.1,26.5,N/A,,Overcast,270,2012-10-05 08:15:00
3:35 AM,36.7,26.2,66,29.98,10.0,West,13.8,23.0,N/A,,Overcast,270,2012-10-05 08:35:00
3:55 AM,36.9,26.4,66,29.97,10.0,West,17.3,25.3,N/A,,Overcast,270,2012-10-05 08:55:00
4:15 AM,36.9,26.6,66,29.97,10.0,West,13.8,20.7,N/A,,Overcast,270,2012-10-05 09:15:00
4:35 AM,36.7,26.6,67,29.96,10.0,West,15.0,20.7,N/A,,Overcast,260,2012-10-05 09:35:00
4:55 AM,36.7,26.4,66,29.97,10.0,West,17.3,20.7,N/A,,Overcast,260,2012-10-05 09:55:00
5:15 AM,36.1,26.1,67,29.97,10.0,West,16.1,21.9,N/A,,Overcast,260,2012-10-05 10:15:00
5:35 AM,36.5,25.9,65,29.96,10.0,West,13.8,21.9,N/A,,Overcast,260,2012-10-05 10:35:00
5:55 AM,36.1,26.1,67,29.96,10.0,West,13.8,21.9,N/A,,Overcast,260,2012-10-05 10:55:00
6:15 AM,35.8,26.1,68,29.96,10.0,West,12.7,21.9,N/A,,Overcast,270,2012-10-05 11:15:00
6:35 AM,35.6,25.7,67,29.96,10.0,West,16.1,21.9,N/A,,Overcast,260,2012-10-05 11:35:00
6:55 AM,36.1,25.7,66,29.96,10.0,West,11.5,20.7,N/A,,Overcast,270,2012-10-05 11:55:00
7:15 AM,36.1,25.7,66,29.96,10.0,West,15.0,20.7,N/A,,Overcast,270,2012-10-05 12:15:00
7:35 AM,36.5,25.7,65,29.96,10.0,West,16.1,21.9,N/A,,Overcast,270,2012-10-05 12:35:00
7:55 AM,36.9,25.5,64,29.96,10.0,West,13.8,25.3,N/A,,Overcast,280,2012-10-05 12:55:00
8:15 AM,37.4,25.7,63,29.96,10.0,West,11.5,21.9,N/A,,Overcast,270,2012-10-05 13:15:00
8:35 AM,38.3,25.5,60,29.96,10.0,West,18.4,31.1,N/A,,Overcast,260,2012-10-05 13:35:00
8:55 AM,38.3,24.6,58,29.95,10.0,West,23.0,36.8,N/A,,Mostly Cloudy,270,2012-10-05 13:55:00
9:15 AM,39.2,25.0,57,29.96,10.0,West,19.6,31.1,N/A,,Mostly Cloudy,280,2012-10-05 14:15:00
9:35 AM,39.6,25.3,57,29.95,10.0,West,18.4,32.2,N/A,,Mostly Cloudy,280,2012-10-05 14:35:00
9:55 AM,41.2,25.7,54,29.96,10.0,West,16.1,24.2,N/A,,Mostly Cloudy,260,2012-10-05 14:55:00
10:15 AM,41.2,25.2,53,29.95,10.0,West,23.0,32.2,N/A,,Mostly Cloudy,280,2012-10-05 15:15:00
10:35 AM,41.9,25.2,52,29.95,10.0,West,17.3,25.3,N/A,,Mostly Cloudy,270,2012-10-05 15:35:00
10:55 AM,43.2,25.5,50,29.96,10.0,West,19.6,28.8,N/A,,Mostly Cloudy,260,2012-10-05 15:55:00
11:15 AM,43.9,25.5,48,29.95,10.0,West,15.0,24.2,N/A,,Mostly Cloudy,260,2012-10-05 16:15:00
11:35 AM,43.2,25.2,49,29.95,10.0,West,19.6,26.5,N/A,,Overcast,260,2012-10-05 16:35:00
11:55 AM,43.9,24.8,47,29.94,10.0,West,20.7,26.5,N/A,,Mostly Cloudy,280,2012-10-05 16:55:00
12:15 PM,44.8,25.9,48,29.94,10.0,West,12.7,23.0,N/A,,Mostly Cloudy,260,2012-10-05 17:15:00
12:35 PM,44.2,25.9,49,29.94,10.0,West,19.6,25.3,N/A,,Mostly Cloudy,260,2012-10-05 17:35:00
12:55 PM,45.1,25.2,46,29.93,10.0,West,13.8,27.6,N/A,,Mostly Cloudy,260,2012-10-05 17:55:00
1:35 PM,43.7,25.5,49,29.93,10.0,West,16.1,26.5,N/A,,Overcast,260,2012-10-05 18:35:00
1:55 PM,43.5,25.3,49,29.92,10.0,West,17.3,28.8,N/A,,Overcast,260,2012-10-05 18:55:00
2:15 PM,43.7,25.0,48,29.92,10.0,West,18.4,26.5,N/A,,Overcast,260,2012-10-05 19:15:00
2:35 PM,43.7,24.8,47,29.93,10.0,West,18.4,27.6,N/A,,Overcast,260,2012-10-05 19:35:00
2:55 PM,43.3,24.6,48,29.93,10.0,West,17.3,27.6,N/A,,Overcast,260,2012-10-05 19:55:00
3:15 PM,43.3,24.8,48,29.92,10.0,West,18.4,28.8,N/A,,Overcast,260,2012-10-05 20:15:00
3:35 PM,43.9,24.8,47,29.92,10.0,West,19.6,28.8,N/A,,Overcast,270,2012-10-05 20:35:00
3:55 PM,42.6,24.6,49,29.92,10.0,WNW,21.9,27.6,N/A,,Overcast,290,2012-10-05 20:55:00
4:15 PM,42.4,24.1,48,29.94,10.0,West,21.9,28.8,N/A,,Overcast,270,2012-10-05 21:15:00
4:35 PM,41.0,24.1,51,29.95,10.0,West,21.9,26.5,N/A,,Overcast,260,2012-10-05 21:35:00
4:55 PM,40.3,23.9,52,29.95,10.0,West,19.6,24.2,N/A,,Overcast,270,2012-10-05 21:55:00
5:15 PM,40.1,23.9,52,29.95,10.0,West,17.3,21.9,N/A,,Overcast,280,2012-10-05 22:15:00
5:35 PM,39.6,23.5,53,29.95,10.0,WNW,16.1,26.5,N/A,,Overcast,290,2012-10-05 22:35:00
5:55 PM,39.2,23.4,53,29.96,10.0,West,17.3,25.3,N/A,,Overcast,280,2012-10-05 22:55:00
6:15 PM,38.3,23.4,55,29.96,10.0,WNW,17.3,29.9,N/A,,Overcast,290,2012-10-05 23:15:00
6:35 PM,37.8,23.0,55,29.96,10.0,West,17.3,24.2,N/A,,Overcast,280,2012-10-05 23:35:00
6:55 PM,37.6,22.8,55,29.96,10.0,WNW,20.7,29.9,N/A,,Overcast,290,2012-10-05 23:55:00
7:15 PM,37.4,22.1,54,29.97,10.0,West,16.1,26.5,N/A,,Overcast,280,2012-10-06 00:15:00
7:35 PM,37.0,22.5,56,29.97,10.0,West,17.3,25.3,N/A,,Overcast,270,2012-10-06 00:35:00
7:55 PM,36.7,22.6,57,29.97,10.0,West,13.8,24.2,N/A,,Overcast,270,2012-10-06 00:55:00
8:15 PM,36.5,23.0,58,29.97,10.0,West,12.7,18.4,N/A,,Overcast,270,2012-10-06 01:15:00
8:35 PM,36.5,23.0,58,29.97,10.0,West,18.4,24.2,N/A,,Overcast,280,2012-10-06 01:35:00
8:55 PM,36.5,23.5,59,29.97,10.0,West,15.0,23.0,N/A,,Overcast,270,2012-10-06 01:55:00
9:15 PM,36.1,23.7,61,29.96,10.0,West,15.0,20.7,N/A,,Overcast,270,2012-10-06 02:15:00
9:35 PM,35.4,23.9,63,29.96,10.0,West,15.0,18.4,N/A,,Overcast,280,2012-10-06 02:35:00
9:55 PM,35.6,24.3,63,29.95,10.0,West,15.0,19.6,N/A,,Overcast,280,2012-10-06 02:55:00
10:35 PM,35.6,24.8,65,29.95,10.0,West,17.3,24.2,N/A,,Overcast,270,2012-10-06 03:35:00
10:55 PM,36.0,25.2,65,29.95,10.0,West,12.7,23.0,N/A,,Overcast,280,2012-10-06 03:55:00
11:15 PM,35.8,25.3,66,29.95,10.0,West,15.0,21.9,N/A,,Overcast,280,2012-10-06 04:15:00
11:35 PM,35.8,25.7,67,29.94,10.0,West,15.0,25.3,N/A,,Overcast,280,2012-10-06 04:35:00
11:55 PM,35.6,26.2,69,29.94,10.0,WNW,16.1,21.9,N/A,,Overcast,290,2012-10-06 04:55:00